Location: Unspecified
(0.0000°N, 0.0000°E)
Time: 03:52:00
(UTC+02:00)

Resurs 01 Rocket - Visible Passes

Search period start: 02 September 2014 00:00
Search period end: 12 September 2014 00:00
Orbit: 635 x 647 km, 98.2° (Epoch: 01 September)

Date Brightness Start Highest point End Pass type
(mag) Time Alt. Az. Time Alt. Az. Time Alt. Az.
03 Sep 3.1 20:14:51 10° S 20:19:03 43° WSW 20:23:14 10° NNW visible
04 Sep 4.9 06:53:03 10° E 06:54:37 12° ESE 06:56:11 10° ESE visible
04 Sep 4.5 20:39:34 10° SSW 20:42:49 20° WSW 20:46:04 10° NW visible
05 Sep 4.2 07:14:46 10° NE 07:18:23 25° ESE 07:22:00 10° SSE visible
08 Sep 5.0 06:52:16 10° E 06:53:31 11° ESE 06:54:47 10° ESE visible
08 Sep 4.4 20:38:22 10° SSW 20:41:43 21° WSW 20:45:03 10° NW visible
09 Sep 4.3 07:13:44 10° NE 07:17:17 24° ESE 07:20:50 10° SSE visible
